Wind_Speed
8 7 6 5 5 4 4 4 5 5 5 6 6 6 6 6 7 7 7 7 7 7 7 7 8 8 8 8 7 8 8 8 8 9 9 10 10 10 11 11 12 12 12 12 12 11 12 13 13 13 13 13 14 15 15 15 15 15 15 15 16 16 17 18 15 15 20 22 21 22 23 22 22 21 21 21 19 17 15 14 14 14 15 15 14
9 8 7 6 6 5 5 5 5 5 5 6 6 6 6 7 7 8 8 7 7 8 8 8 8 8 8 8 8 8 8 8 8 8 9 10 11 11 11 11 12 12 12 13 13 12 12 13 14 13 13 13 14 15 15 15 15 16 16 15 17 17 17 18 18 16 19 22 22 22 22 21 21 21 21 21 20 18 17 16 15 13 14 14 13
9 9 8 8 7 6 6 6 6 6 6 6 7 7 7 8 8 8 9 9 8 8 9 9 9 10 10 10 10 10 10 10 10 9 10 11 11 12 12 12 13 13 14 15 15 15 15 15 15 14 14 15 15 15 15 15 15 15 16 16 17 18 18 18 18 18 20 22 23 23 22 22 22 21 22 22 21 20 19 17 16 13 12 13 15
10 9 9 9 8 7 7 6 7 6 7 7 8 8 9 9 9 9 10 10 10 10 11 11 12 12 12 12 13 13 13 13 13 13 13 13 13 13 13 14 14 14 15 16 17 18 19 19 19 17 17 17 17 17 16 15 15 16 17 17 17 18 18 18 18 19 20 21 22 23 23 23 22 21 21 22 21 20 19 18 17 15 13 12 13
9 9 9 9 8 8 7 7 7 7 8 8 9 9 10 10 10 11 11 12 12 13 13 13 13 13 14 15 16 16 16 17 17 17 17 16 16 16 16 16 16 16 17 18 20 20 20 21 22 21 20 20 19 18 17 17 16 17 18 19 18 18 18 19 19 20 20 21 22 24 24 23 23 22 20 21 21 20 19 18 16 14 13 12 10
8 8 9 9 8 8 8 9 9 9 9 9 10 10 11 11 12 12 12 13 14 15 15 15 15 15 16 17 18 19 19 19 19 19 19 19 19 19 19 18 19 20 20 21 22 23 23 23 24 23 23 22 21 20 19 18 18 19 19 19 19 19 19 19 19 20 20 21 22 23 24 23 23 22 20 20 20 19 18 18 14 12 12 11 8
7 8 8 8 8 9 10 10 9 10 10 10 11 11 12 12 13 13 14 15 16 16 17 18 17 17 18 19 20 21 21 21 21 21 20 21 21 21 21 21 21 23 24 24 24 25 26 25 24 24 23 23 23 21 19 18 18 18 18 18 19 20 20 19 19 19 20 20 21 22 23 23 22 22 21 20 20 20 19 17 16 14 12 10 8
7 7 8 7 8 9 10 9 10 11 11 12 12 13 14 14 14 15 15 16 17 18 19 20 20 20 21 22 22 22 23 23 22 22 23 23 23 23 23 23 23 25 26 26 26 26 28 28 27 26 26 25 23 21 19 17 16 16 16 16 17 19 20 21 21 20 20 20 20 21 22 22 21 21 21 19 19 18 16 16 17 16 13 11 10
6 6 6 7 7 8 9 9 10 11 12 13 14 14 15 15 15 16 17 18 18 19 21 22 23 23 23 23 24 23 23 23 22 23 24 25 25 25 24 24 25 26 26 26 26 27 28 29 28 28 28 26 25 23 22 20 18 16 15 15 16 17 19 20 20 20 20 19 19 20 20 21 21 20 20 19 17 17 16 16 16 19 16 10 9
5 5 5 6 7 8 9 9 10 12 13 14 14 15 16 17 17 18 19 21 21 22 22 22 22 23 23 23 22 22 21 21 21 23 26 28 28 27 26 25 26 26 26 27 27 27 27 28 29 30 28 27 27 27 26 24 22 19 17 15 16 16 17 18 19 19 19 19 19 19 19 20 21 20 20 20 18 18 19 17 15 19 17 8 6
3 4 5 6 7 9 10 10 11 12 13 15 16 17 19 19 19 20 21 21 21 20 20 20 20 20 20 20 19 19 19 19 20 23 26 28 29 29 27 25 24 25 25 26 27 26 27 28 29 30 28 27 26 26 26 24 22 20 19 18 18 17 16 16 18 19 19 19 19 20 20 20 22 22 22 22 20 18 19 18 16 18 16 10 6
2 3 5 6 8 9 10 11 12 13 15 17 18 19 20 21 21 21 20 19 18 18 17 17 17 17 17 17 18 18 18 18 21 25 27 28 30 31 28 24 23 23 23 25 26 26 27 28 28 28 27 27 27 27 26 24 21 19 18 18 19 19 19 19 18 19 20 20 20 21 21 22 23 23 21 21 21 20 19 18 16 17 18 15 11
2 4 5 7 8 9 10 12 13 15 17 19 19 19 20 20 19 18 17 16 16 15 15 15 15 15 16 17 18 18 19 21 25 28 30 30 31 32 31 26 24 24 25 25 26 27 27 28 27 26 27 28 28 27 26 26 23 20 18 18 19 21 22 22 21 20 22 23 22 23 23 23 23 23 22 21 22 22 21 20 18 17 17 18 15
3 4 6 7 9 10 12 14 16 17 18 19 18 18 17 16 16 15 15 15 14 14 14 14 15 16 17 18 20 21 21 23 27 30 32 32 32 33 32 28 25 25 25 25 26 27 27 28 28 28 27 28 29 28 27 27 26 24 21 20 20 21 22 23 22 22 24 25 25 25 24 24 23 24 24 22 22 22 20 20 20 19 17 18 20
3 5 6 9 10 12 14 15 16 17 17 17 16 15 15 14 14 14 13 14 14 14 15 15 16 17 19 20 21 21 21 23 26 29 30 31 33 32 29 26 24 24 24 25 26 27 28 28 29 28 28 28 29 29 29 28 27 25 23 20 20 21 23 23 23 24 24 25 25 25 24 23 23 25 25 23 22 22 21 21 23 24 22 21 23
5 7 9 10 12 13 14 15 15 14 14 14 14 14 14 14 13 13 13 14 15 15 16 18 19 20 20 20 20 20 21 22 25 27 28 30 32 29 25 24 24 25 25 25 26 27 28 28 29 28 29 29 29 30 29 28 28 25 23 21 21 22 24 24 25 26 26 27 27 27 27 26 26 26 27 27 26 23 22 23 23 23 22 20 20
7 8 10 11 12 12 12 12 12 12 13 14 14 14 14 13 13 13 14 16 17 18 18 19 20 21 20 20 19 20 21 21 22 25 27 30 31 27 24 24 24 25 25 26 27 28 28 28 29 29 30 29 28 28 27 26 26 24 23 23 22 24 26 26 26 25 26 28 29 30 29 28 28 28 28 29 28 23 21 22 20 19 18 16 15
8 8 9 10 9 9 9 10 11 12 13 13 13 13 13 13 13 14 16 18 19 19 19 20 20 20 19 19 20 21 21 20 21 24 25 27 28 26 24 25 25 25 27 28 29 30 30 29 28 29 30 29 28 27 25 24 24 22 23 24 23 24 26 26 25 25 24 24 26 26 25 24 26 28 29 29 28 24 24 24 20 18 19 17 16
7 7 7 7 7 8 8 9 10 11 12 12 12 13 14 14 15 16 17 18 19 19 19 20 20 19 19 20 20 20 20 20 22 25 24 24 27 27 25 25 26 26 27 29 30 30 31 32 30 29 30 30 28 26 25 25 23 21 21 23 23 24 24 23 23 23 23 22 22 21 22 22 23 25 27 28 27 26 26 26 23 21 21 21 20
5 6 6 6 7 8 8 9 10 10 11 12 13 14 14 15 16 17 17 18 19 19 19 19 20 20 20 20 20 20 20 21 23 25 22 21 26 31 29 26 26 28 28 29 29 29 30 32 34 32 30 29 27 26 25 25 24 22 21 21 23 23 21 21 21 21 21 22 22 22 23 23 24 24 24 24 23 24 26 26 26 25 24 23 24
6 6 6 7 8 9 9 9 10 10 10 12 13 14 14 15 17 17 17 17 18 18 19 19 19 20 21 20 20 20 21 23 25 24 22 22 26 33 33 28 28 30 30 28 28 28 28 30 33 33 30 28 28 27 24 24 24 23 21 21 23 23 21 20 21 21 20 21 21 22 23 23 23 22 21 20 20 21 23 23 24 27 27 26 25
7 7 7 8 9 9 8 9 9 9 11 13 14 15 15 16 17 16 17 18 19 19 20 20 20 21 21 20 21 21 22 24 24 23 23 26 30 35 36 33 32 33 31 29 28 28 28 29 30 30 30 30 30 28 25 24 23 23 23 24 25 26 25 22 20 19 18 19 19 20 21 22 21 19 19 18 18 20 21 20 22 26 28 30 29
7 8 8 8 9 8 8 9 9 10 12 14 15 15 15 16 17 17 17 19 19 20 21 21 21 22 22 21 22 22 22 23 23 23 26 31 35 36 35 35 36 35 31 30 31 30 29 29 29 31 33 36 37 35 32 31 28 25 25 27 28 28 25 21 18 17 17 18 19 19 19 19 18 17 17 16 16 18 20 20 21 22 24 29 31
7 7 7 8 8 9 10 10 11 12 14 14 14 14 16 17 17 18 19 20 20 21 22 22 22 22 22 22 23 23 23 23 23 23 27 32 35 35 35 36 37 35 32 32 31 30 31 32 34 37 38 39 40 38 35 35 34 29 26 28 30 28 23 19 17 17 18 19 18 16 16 16 16 16 17 16 17 20 21 20 20 19 21 24 27
7 7 7 8 9 11 11 12 13 12 13 14 13 14 16 17 18 19 19 20 20 21 21 22 21 21 22 23 23 23 23 23 23 24 28 33 34 35 35 36 35 33 33 33 32 33 36 38 40 41 39 36 36 34 31 29 29 28 26 26 26 24 21 18 18 19 19 17 15 13 14 15 14 15 17 18 18 20 21 21 19 17 17 20 22
7 8 8 9 10 11 12 13 13 12 12 14 14 14 16 17 19 19 20 20 21 21 21 21 21 21 22 22 23 23 24 24 24 26 30 34 35 36 36 34 33 33 32 32 33 35 36 38 39 40 39 36 33 30 28 26 26 26 26 25 23 21 19 18 19 19 16 13 12 12 13 14 13 14 16 17 17 19 20 19 17 14 13 14 16
8 9 10 10 11 11 11 12 12 12 12 14 14 14 15 17 18 19 19 20 20 20 20 20 20 21 22 22 22 23 25 25 27 30 34 36 36 37 37 35 34 34 32 31 33 34 35 36 37 37 37 35 31 27 26 26 27 28 27 24 21 20 20 20 19 15 11 10 11 12 12 13 13 13 15 16 16 18 18 16 14 13 11 11 12
9 10 10 10 11 11 10 11 12 12 13 14 14 14 15 17 17 17 18 19 19 19 18 19 20 21 23 23 24 25 26 26 29 33 37 38 38 39 39 38 38 37 36 36 37 36 34 33 32 30 29 28 24 22 21 22 24 24 21 19 19 20 21 21 19 13 9 9 11 11 12 13 12 12 13 14 15 17 16 14 13 10 8 8 10
9 10 9 9 11 11 10 10 12 13 13 14 14 14 15 15 15 15 15 17 18 17 16 17 20 21 23 24 26 28 28 29 32 37 39 39 40 40 39 40 41 40 40 42 41 36 31 28 26 25 26 24 22 20 20 21 22 18 16 16 17 16 18 20 18 12 8 8 10 11 12 12 12 11 11 12 14 16 16 13 9 7 6 6 8
8 8 9 9 11 11 10 11 12 13 13 14 15 15 14 13 13 13 14 16 17 16 15 17 20 22 23 24 25 27 29 32 36 39 40 41 41 41 41 43 44 42 42 43 39 31 26 25 23 22 23 23 21 19 20 21 21 18 16 16 15 15 18 19 14 7 6 8 9 10 11 10 11 11 10 11 13 14 15 12 9 7 7 6 6
8 9 9 9 10 11 11 11 13 13 14 14 14 15 14 12 12 13 14 15 16 15 15 17 20 23 25 25 25 26 29 32 36 39 40 41 41 42 43 44 45 44 42 38 32 26 23 24 22 20 22 22 20 20 21 20 20 20 17 13 12 15 18 14 7 5 6 8 9 9 9 9 10 10 10 10 11 13 14 13 10 9 8 7 7
9 9 9 9 9 10 11 12 12 13 14 14 14 14 13 12 12 13 13 13 14 15 15 15 18 23 25 25 26 28 30 33 37 38 39 39 40 42 44 42 43 44 39 31 25 23 24 24 22 23 25 24 21 21 21 19 19 19 14 10 11 13 11 5 4 5 6 8 9 8 9 9 9 10 11 10 10 12 13 12 9 8 8 8 8
8 9 10 10 10 10 11 12 12 13 13 14 13 12 12 12 12 12 11 11 12 14 13 12 16 23 25 25 28 31 32 34 36 37 37 38 39 41 40 37 38 42 38 29 26 26 25 25 25 25 25 24 23 24 22 20 19 18 11 5 8 7 3 3 5 6 7 9 10 10 11 9 9 11 13 12 10 11 12 11 9 7 8 8 8
7 8 10 11 10 10 11 11 12 12 13 12 12 11 11 11 11 11 11 12 13 13 12 12 17 23 25 26 29 32 32 34 35 34 35 36 37 37 36 33 37 42 40 34 31 29 28 28 30 29 28 26 25 24 23 22 19 12 6 9 12 12 11 10 9 10 10 11 13 14 14 12 10 12 15 15 14 13 12 10 8 6 7 8 8
5 6 9 11 10 10 11 11 11 11 11 11 10 10 10 10 10 10 10 11 12 13 13 13 17 22 25 26 28 31 31 32 31 31 33 36 35 34 34 34 36 38 37 35 33 31 31 32 33 35 37 36 30 23 20 18 14 13 16 17 18 17 15 14 13 13 12 12 14 16 16 14 13 14 14 14 15 15 13 11 8 7 7 9 9
6 7 8 10 10 10 10 10 9 10 10 10 9 9 9 9 9 10 10 11 12 13 13 14 17 20 23 25 27 28 29 28 27 27 30 33 34 32 31 31 31 30 30 31 32 32 32 33 34 37 42 43 41 36 30 26 26 26 24 22 20 19 18 17 16 15 14 14 14 15 16 15 14 15 15 14 13 14 14 14 12 10 9 9 10
7 8 9 10 11 10 8 8 8 8 8 8 8 8 8 8 9 10 10 11 12 13 13 15 17 20 22 24 26 27 26 24 23 24 27 31 32 31 30 29 29 28 29 29 30 31 32 34 38 42 41 40 43 45 42 37 34 32 28 24 21 19 19 18 18 17 15 14 14 15 15 15 14 14 15 14 14 14 14 14 13 13 12 11 10
5 6 9 10 9 8 8 7 7 7 7 7 7 8 8 9 9 10 10 11 12 13 14 15 18 20 22 24 26 26 24 24 24 25 28 30 31 30 30 29 28 28 28 29 30 30 30 33 40 45 44 42 42 44 43 38 34 30 28 25 23 21 20 19 19 19 17 16 15 15 15 15 15 14 15 14 15 15 15 15 14 14 13 12 9
2 5 9 10 6 6 7 7 6 6 7 6 7 7 8 9 10 10 10 11 12 13 14 15 17 18 21 24 25 25 24 24 25 26 27 28 27 27 28 27 27 28 29 28 29 30 29 30 33 37 41 42 40 36 35 33 30 28 27 26 24 23 22 20 19 20 19 18 17 17 16 16 15 15 15 15 16 16 16 16 16 15 13 12 10
2 3 8 9 5 4 5 6 6 6 6 6 7 7 8 8 9 9 10 11 11 12 14 15 15 16 19 23 25 24 22 23 24 23 24 25 25 25 25 25 25 27 28 27 28 29 27 27 28 30 32 36 35 31 29 29 28 26 26 26 25 24 23 22 21 21 20 19 18 18 17 17 17 16 16 16 17 17 16 16 16 16 14 12 11
4 3 4 6 6 5 4 5 6 6 6 6 7 7 7 7 8 8 9 10 11 12 13 14 14 14 16 20 23 22 19 19 20 21 21 22 22 23 23 23 23 25 26 27 29 29 27 26 27 27 28 31 32 29 28 28 27 26 26 25 24 24 24 24 23 23 22 21 20 18 18 18 17 17 18 17 17 17 17 17 16 16 15 14 12
4 4 3 4 5 5 4 5 5 5 5 6 6 6 7 7 7 8 8 9 10 11 12 13 14 14 15 18 20 19 18 18 19 19 20 20 20 21 22 22 22 23 24 25 27 28 28 27 26 26 28 30 31 29 28 28 28 26 26 25 24 24 24 24 25 25 25 23 21 19 19 18 17 17 18 18 17 17 18 18 18 16 14 14 14
3 4 3 3 4 4 5 4 4 4 5 5 5 6 6 6 6 7 8 8 10 10 11 12 13 14 15 17 18 17 17 17 18 19 19 20 20 20 20 20 21 22 23 23 24 26 27 27 27 27 27 28 28 27 27 27 26 26 27 26 26 25 25 25 27 30 29 26 23 20 19 17 17 17 18 17 17 17 17 18 18 17 15 14 13
3 3 3 3 4 4 4 4 4 4 4 3 3 4 5 5 6 7 8 8 9 10 10 11 13 14 14 16 17 17 17 18 19 19 19 19 20 20 20 19 19 20 21 21 21 22 24 26 28 28 28 27 27 26 26 25 26 26 26 28 28 27 26 28 30 31 30 27 24 21 19 18 17 17 18 18 18 18 18 18 17 17 16 15 13
2 2 3 3 3 3 3 3 3 3 2 2 2 3 4 5 6 7 8 8 8 9 9 10 12 13 14 14 15 16 16 17 18 19 19 19 19 20 20 19 19 19 21 21 21 21 22 23 26 28 28 27 26 26 25 25 26 25 26 28 28 28 29 30 28 26 27 28 24 20 19 19 17 18 19 19 18 18 18 18 18 17 16 16 14
3 3 3 3 3 3 3 2 2 2 2 3 3 3 4 5 6 7 7 8 8 8 8 9 10 12 13 13 14 15 15 16 16 17 18 18 19 19 19 19 18 18 19 20 20 20 21 21 23 26 28 27 26 25 25 25 25 25 26 27 30 32 34 32 27 25 27 28 24 20 20 19 18 18 20 19 18 18 18 18 19 18 17 17 15
3 3 3 4 3 3 2 2 2 2 2 2 3 3 4 5 5 6 6 7 7 7 8 8 9 10 11 12 13 13 14 14 15 16 16 17 18 18 18 18 18 18 18 19 20 20 21 20 21 23 25 26 26 26 25 25 26 26 26 28 34 38 38 34 29 27 27 25 21 19 20 19 18 19 19 18 18 19 19 19 20 19 18 18 16
4 4 4 3 3 2 2 2 1 1 1 2 2 3 3 4 5 5 6 6 6 7 7 8 9 9 10 11 12 13 13 14 14 15 16 17 17 17 17 17 17 17 18 18 19 20 20 20 20 21 22 25 26 25 25 25 26 27 27 30 35 38 37 33 31 29 26 22 19 19 20 20 18 19 19 19 18 18 18 19 19 19 19 18 17
4 4 4 4 3 2 2 2 1 0 1 1 1 2 2 3 4 5 5 5 6 7 7 7 8 9 9 10 11 11 12 12 13 13 14 15 16 16 16 16 16 17 17 18 19 19 19 19 19 19 19 22 25 25 24 25 27 29 31 34 36 36 33 31 29 27 25 23 20 18 19 19 19 18 19 19 19 18 18 19 19 19 18 18 18
5 5 4 4 3 3 2 2 1 1 1 1 1 2 2 2 3 4 5 5 6 6 7 7 7 8 9 9 10 10 11 11 12 12 13 14 14 15 15 15 16 16 16 17 18 18 18 18 19 19 18 19 23 25 25 26 29 32 34 36 36 34 32 31 28 26 26 24 21 19 19 19 18 18 18 18 19 20 20 20 20 19 18 18 18
6 5 5 5 4 3 3 2 2 1 1 1 1 2 2 2 3 4 4 5 5 6 7 7 7 8 8 8 9 9 10 10 11 11 12 12 14 14 14 14 15 16 16 16 17 18 18 17 18 19 18 18 21 25 27 28 31 33 35 36 36 34 32 31 28 26 26 25 21 20 20 19 18 18 18 18 20 21 21 21 20 19 18 19 19
Wind_Direction
266 267 264 258 261 280 298 300 305 323 336 335 335 338 340 342 341 339 336 337 339 339 341 340 337 336 336 335 336 334 332 329 325 322 320 320 320 320 318 319 319 318 318 316 314 314 314 314 314 314 313 310 307 306 303 302 302 300 298 298 297 297 296 295 293 294 296 297 297 297 299 300 298 295 293 291 288 282 276 271 268 263 255 245 241
263 264 261 254 253 266 281 287 293 305 318 324 324 325 328 328 329 329 329 331 332 330 331 326 319 316 313 313 315 315 315 315 312 307 305 308 310 310 309 310 310 309 309 308 307 308 307 307 309 312 311 307 305 305 304 303 303 300 299 299 298 298 297 296 297 297 298 301 301 300 300 298 296 296 294 291 289 286 279 273 269 262 258 247 236
263 261 256 251 251 259 270 282 290 297 306 315 317 316 316 316 317 318 320 322 322 319 316 310 304 301 299 299 300 300 300 300 297 290 289 294 297 298 299 300 301 301 301 302 304 304 303 302 304 306 306 304 303 303 303 302 302 301 300 299 298 298 297 297 297 297 298 301 302 301 300 299 297 295 294 291 288 287 282 277 272 265 264 254 241
262 257 252 249 250 257 267 280 291 297 306 312 312 309 308 307 307 309 310 311 310 308 304 300 298 296 295 298 301 301 302 301 298 293 291 291 291 292 293 293 294 295 296 299 303 303 302 301 300 300 301 301 301 302 301 301 301 301 301 300 299 298 299 299 297 296 298 298 299 299 298 298 296 294 294 292 288 285 282 278 274 270 269 258 247
262 255 251 250 251 257 268 282 293 300 305 307 307 306 306 304 303 302 301 301 302 302 300 297 296 296 299 305 308 307 305 304 302 300 299 298 295 292 289 288 289 291 293 297 301 303 302 300 298 297 296 296 297 299 300 301 301 301 301 301 300 300 300 299 297 296 296 296 297 298 297 296 295 293 294 292 289 286 281 277 273 269 272 262 246
258 252 248 251 256 268 283 294 300 305 306 306 305 304 304 302 301 302 301 300 298 296 297 297 296 298 303 308 309 307 306 304 301 299 298 297 294 290 287 285 286 290 293 295 298 301 301 300 298 295 293 292 292 295 298 300 300 300 300 299 299 300 300 298 296 295 294 293 294 296 295 295 293 292 292 291 290 288 284 281 274 264 268 266 246
253 249 245 249 263 285 298 301 303 306 305 304 302 301 302 300 298 300 300 298 297 297 301 304 302 300 302 304 304 304 303 300 297 295 295 295 292 290 288 286 285 288 290 291 293 296 297 297 296 294 290 288 288 290 292 295 296 295 296 296 297 299 298 297 297 295 293 292 291 292 293 293 292 291 292 292 289 285 282 280 272 259 254 252 246
251 249 245 252 272 293 301 302 303 305 303 300 299 297 296 295 295 296 296 295 297 300 305 308 306 302 301 302 301 301 300 297 294 292 294 296 294 290 288 286 284 285 287 287 287 290 292 293 293 292 289 285 281 278 278 281 286 288 290 291 293 297 298 297 296 294 292 291 289 289 290 292 292 291 291 291 289 287 285 283 281 275 258 235 233
250 250 251 265 285 296 300 300 303 304 301 298 298 296 296 297 296 295 298 299 301 304 305 305 305 302 302 301 301 301 298 295 293 292 295 298 296 292 289 286 285 284 284 284 283 285 287 288 288 288 286 279 269 265 268 272 272 274 280 284 288 292 295 296 295 293 291 290 289 290 290 289 291 292 292 291 291 292 293 291 289 288 278 241 219
244 255 270 286 296 299 299 300 302 303 303 301 303 305 306 308 303 300 303 305 306 306 305 304 303 303 303 303 303 303 300 297 295 296 299 300 299 297 292 287 285 284 282 283 283 283 284 284 285 285 282 274 264 263 271 273 266 264 269 275 282 286 290 293 292 290 290 289 288 289 289 288 289 291 291 290 291 292 291 289 285 283 278 255 222
241 269 293 300 302 299 300 302 302 304 307 308 310 312 313 313 308 305 305 306 306 306 306 305 306 306 307 307 308 306 304 302 302 305 308 310 308 304 297 290 287 283 281 281 281 282 283 285 287 287 282 275 267 266 271 268 261 261 266 272 278 278 277 282 286 286 287 286 286 286 285 286 287 289 289 289 289 288 287 289 290 285 276 253 223
266 294 304 303 302 303 303 304 304 308 312 313 315 314 313 311 310 309 309 309 309 309 308 309 310 311 313 313 313 312 310 309 312 316 318 318 317 313 306 295 288 284 281 280 281 283 286 287 288 286 283 280 276 274 273 267 258 258 264 271 278 278 274 273 274 278 281 281 283 284 282 283 285 287 288 290 290 289 286 286 287 287 282 267 242
296 305 306 304 303 304 305 307 311 314 315 315 314 312 311 313 314 315 315 313 312 311 311 312 314 316 318 317 316 315 312 312 316 321 322 320 319 318 312 301 290 284 281 280 281 282 285 287 288 287 285 284 281 277 273 270 265 261 260 265 272 275 276 272 266 267 274 275 275 277 276 278 281 284 287 291 293 292 289 285 282 284 286 278 262
305 305 304 303 303 307 311 315 316 316 315 315 315 314 317 320 322 320 318 315 314 314 314 316 317 318 319 318 317 315 313 315 318 322 324 323 322 321 315 304 291 284 280 280 281 282 284 287 288 287 287 287 285 281 275 271 269 266 263 265 269 273 276 273 267 269 272 268 264 266 271 275 278 281 285 289 291 290 289 290 290 289 288 286 281
302 298 301 305 311 316 317 317 316 316 319 321 321 322 325 326 324 322 320 319 318 317 318 318 318 317 318 319 319 317 317 319 322 325 327 329 330 327 318 305 294 287 283 283 284 285 287 289 289 289 288 287 286 286 281 273 269 268 267 269 272 274 275 273 271 273 272 267 262 264 270 277 279 280 282 284 287 288 288 290 291 289 286 284 284
298 303 310 314 318 320 318 319 322 326 329 329 328 328 328 327 326 325 324 322 320 319 319 319 319 319 320 322 322 322 323 323 326 331 334 335 336 332 320 309 300 294 289 289 290 290 290 291 291 291 291 289 288 289 283 271 266 267 268 270 274 275 274 275 273 273 272 270 268 269 273 278 279 279 280 281 283 286 287 285 282 281 282 279 275
309 317 319 318 320 324 328 333 337 338 335 332 330 331 330 328 328 328 327 324 321 320 321 322 323 323 322 324 325 324 324 326 331 335 337 338 339 335 325 316 308 300 295 293 293 293 293 293 293 292 292 292 292 293 285 266 260 265 267 269 274 275 275 276 275 274 274 271 270 271 274 278 279 279 279 280 281 283 280 275 272 271 273 273 269
326 326 324 327 334 344 350 351 347 341 336 335 335 334 331 330 330 329 327 324 323 324 325 325 325 325 323 323 323 322 323 328 334 337 338 341 344 342 332 324 317 310 306 302 298 296 294 294 293 292 292 291 292 294 285 265 258 265 269 271 274 275 276 277 276 277 278 277 274 273 274 278 280 279 279 278 277 275 266 261 260 260 259 258 260
334 335 342 354 2 5 3 357 351 344 340 340 338 335 332 330 330 329 328 327 327 328 329 327 325 325 323 322 323 324 326 331 337 339 340 343 347 348 342 331 326 323 319 315 310 303 298 295 292 290 292 294 294 292 280 265 260 264 269 272 273 274 276 277 277 280 281 280 279 277 276 279 278 276 275 274 273 269 261 255 252 250 250 251 254
359 7 18 21 13 8 6 1 356 350 345 342 337 334 333 333 333 333 332 332 332 330 330 328 325 325 326 326 327 329 330 334 337 339 340 341 345 350 349 339 331 328 324 318 313 307 302 299 295 292 295 298 301 296 280 265 262 265 267 268 270 273 276 275 276 279 279 278 279 280 281 282 279 274 270 269 268 265 259 252 247 243 242 245 248
39 34 28 21 14 12 8 1 355 350 345 342 338 336 339 339 339 338 337 336 334 331 330 329 327 328 330 330 331 332 333 335 336 336 337 339 341 345 346 340 332 328 321 315 311 308 305 304 301 300 302 303 306 303 287 270 269 270 264 262 265 267 270 273 276 275 272 272 275 278 280 281 280 277 273 270 268 266 260 250 244 243 240 239 243
46 35 26 20 16 11 5 360 355 348 346 346 344 344 346 346 343 341 339 336 334 332 333 333 332 332 334 334 335 335 334 335 336 335 337 339 338 338 338 335 331 327 321 315 312 308 305 304 303 305 307 304 302 301 293 286 286 282 272 269 268 263 263 271 276 272 267 268 271 274 278 281 281 280 279 276 272 269 267 259 252 250 245 240 240
43 35 27 20 14 6 0 358 357 354 354 353 351 350 349 348 344 342 340 337 336 336 338 338 337 336 336 337 338 336 335 335 335 335 339 342 339 335 334 331 329 327 321 314 312 308 306 306 306 306 307 302 298 297 293 288 288 287 282 279 275 268 266 269 268 262 258 260 265 271 278 281 283 284 284 282 278 277 278 272 262 257 252 246 245
41 34 25 18 11 3 0 0 0 2 360 355 353 352 350 347 345 343 342 341 341 342 341 341 340 339 339 339 338 337 337 336 334 334 340 342 338 334 331 328 325 324 318 313 310 308 307 308 308 306 304 301 299 300 294 284 279 278 281 284 279 271 267 262 253 249 249 251 258 271 279 283 286 288 288 287 285 286 286 280 265 255 252 251 250
40 28 19 16 11 6 5 4 1 2 2 356 353 352 350 348 347 345 346 347 346 346 344 344 344 342 341 340 338 337 337 336 335 337 340 339 335 330 327 324 321 320 316 311 309 307 307 307 307 306 304 300 298 299 296 287 280 274 276 284 282 268 256 247 241 242 246 253 264 275 282 285 287 290 293 291 286 286 287 280 267 254 250 252 252
35 26 19 17 13 10 10 7 0 359 0 357 353 352 351 351 350 349 351 353 353 350 348 347 347 346 343 340 338 338 338 338 338 339 339 336 332 329 326 323 321 319 315 311 308 307 307 307 306 305 304 300 295 291 287 284 279 270 267 273 274 261 247 239 238 242 248 261 274 281 285 290 292 294 297 295 288 287 286 279 271 263 255 252 250
31 25 21 17 14 11 9 6 359 356 357 355 351 351 353 354 354 355 357 358 357 354 352 351 352 349 344 341 341 341 340 340 341 341 339 335 332 330 329 326 324 323 319 315 313 311 308 306 304 302 302 300 297 291 285 281 275 266 260 261 259 252 246 244 245 250 256 265 277 287 292 296 298 299 299 298 294 293 291 284 281 281 271 255 248
30 26 22 19 14 8 4 3 359 354 353 352 350 351 353 354 355 359 3 4 1 356 354 356 357 352 346 344 343 341 341 342 342 339 336 333 332 332 331 329 328 326 322 319 317 314 309 306 304 303 304 305 304 297 290 282 272 260 255 256 251 246 247 249 247 248 256 267 281 295 298 298 301 301 299 300 301 300 297 288 282 285 283 262 251
31 26 23 21 13 3 359 0 357 351 350 350 350 351 352 351 353 357 3 5 4 2 360 359 357 353 348 346 345 343 340 338 336 335 335 335 334 333 332 331 330 327 324 323 321 315 310 307 308 309 309 310 310 307 303 298 288 273 262 259 251 244 247 246 238 240 263 280 290 298 300 302 307 309 308 310 310 310 310 305 292 296 308 295 273
26 23 21 20 12 2 356 356 354 351 350 350 349 348 349 350 353 356 355 356 0 5 3 357 354 353 350 347 345 343 337 334 335 338 340 340 338 336 334 333 331 328 327 326 323 316 311 311 313 315 314 312 314 318 317 313 310 299 281 266 256 251 252 248 243 256 296 300 298 303 309 313 318 319 317 317 317 318 323 324 320 320 324 321 312
22 20 17 15 9 0 355 354 353 351 351 350 348 347 348 349 353 355 354 354 359 1 358 356 357 357 354 349 345 343 339 338 341 343 343 341 339 338 338 338 337 334 331 326 321 317 318 317 317 319 319 316 318 322 321 319 315 304 290 283 280 267 256 256 273 313 320 312 311 316 322 328 333 330 321 319 324 325 323 320 319 323 324 318 316
26 20 13 6 2 356 353 354 353 350 350 350 348 347 348 348 349 352 357 3 2 356 354 358 0 357 355 352 349 346 344 345 347 346 344 341 340 341 342 343 344 344 341 332 325 326 327 326 325 325 324 322 322 320 318 317 312 301 292 301 301 276 250 251 329 339 338 335 332 331 329 336 347 342 330 324 323 321 318 313 308 311 312 304 303
35 27 14 0 353 353 353 353 352 352 351 349 348 349 350 350 349 348 352 360 358 352 356 6 2 355 354 354 352 350 349 350 351 350 347 345 345 346 347 347 352 358 359 351 342 339 337 333 330 325 321 320 323 324 321 317 309 300 293 327 346 330 329 26 7 1 2 356 352 348 343 346 357 352 343 340 331 317 310 306 300 298 303 301 303
36 26 14 3 354 353 354 353 352 353 352 349 349 353 353 352 351 348 348 353 353 352 0 9 1 356 355 355 353 354 355 356 355 355 355 354 355 357 358 359 4 10 12 8 2 358 354 351 346 340 335 330 327 327 323 315 311 316 358 46 45 34 28 25 20 13 10 10 10 3 354 356 3 358 352 351 342 324 306 298 296 298 306 307 308
23 14 12 9 360 353 353 354 354 355 354 352 354 357 356 354 353 351 350 353 352 350 356 3 359 357 358 356 353 356 1 2 360 0 2 3 4 5 8 10 10 10 11 12 12 10 7 5 1 360 1 0 356 352 344 339 355 35 50 48 44 36 27 22 20 15 15 23 20 8 358 358 2 1 358 353 345 336 327 324 327 324 318 319 318
14 9 9 5 357 352 352 356 0 0 357 355 358 0 359 358 355 351 352 357 356 350 353 360 359 357 359 357 355 357 2 3 3 3 6 8 11 13 13 12 9 6 7 10 11 11 11 11 8 6 8 12 16 19 21 23 32 41 43 42 40 36 29 24 20 15 17 22 19 11 4 1 0 359 358 354 348 345 342 339 339 333 325 325 320
20 16 9 359 352 350 352 359 5 4 360 359 4 5 3 0 357 355 356 0 358 353 354 0 0 358 359 358 356 357 360 1 4 7 9 12 16 19 17 13 9 8 8 9 9 10 11 13 15 14 11 9 14 20 23 25 27 26 27 29 31 31 28 24 20 17 17 16 13 9 5 2 0 358 354 351 349 348 346 342 337 330 324 320 314
33 18 7 3 0 358 0 6 9 7 6 9 12 11 6 2 0 0 0 0 358 356 358 3 4 2 1 358 356 356 359 3 7 11 12 13 15 15 14 12 11 10 9 9 10 11 11 13 18 20 17 13 13 16 18 19 20 20 20 19 19 20 21 19 16 15 13 11 8 4 359 359 0 357 354 350 347 346 348 349 346 337 329 324 323
30 7 6 11 16 12 9 14 16 14 15 16 15 13 10 6 4 3 1 359 0 1 2 5 6 5 4 1 358 358 2 6 9 11 11 11 12 10 8 8 8 7 8 7 7 9 9 8 11 15 16 15 13 11 11 13 14 16 17 16 15 15 14 11 10 8 5 3 1 358 354 353 353 353 355 355 350 346 347 350 350 344 334 328 331
10 7 9 16 26 29 23 26 27 24 21 18 15 15 14 10 7 5 2 1 3 4 5 6 7 6 6 3 359 359 3 7 8 8 8 8 8 7 5 4 4 4 5 5 4 3 3 4 4 7 10 10 8 6 9 12 14 15 16 16 15 14 11 10 8 4 360 356 354 352 352 351 350 351 353 353 351 348 347 348 349 346 340 332 333
5 5 14 23 33 39 39 38 36 32 27 23 20 18 17 14 10 7 5 5 6 5 6 7 6 3 2 359 357 358 3 6 5 5 5 3 1 1 2 2 1 2 3 4 4 3 0 0 2 4 4 4 3 4 8 11 13 14 14 12 11 10 8 7 6 3 359 356 353 351 351 351 351 352 351 350 350 350 351 351 351 349 347 344 341
13 17 25 33 37 41 45 44 42 36 31 29 27 22 16 15 13 9 8 9 8 5 6 7 5 0 357 356 356 359 5 7 4 3 2 360 357 356 357 358 360 2 3 3 4 4 2 1 2 3 3 3 3 5 8 10 11 11 9 7 5 2 360 0 1 0 359 357 353 350 350 351 353 355 353 351 351 351 351 352 352 351 352 351 348
34 40 49 53 52 54 54 47 43 41 35 34 34 25 16 13 12 10 10 11 10 7 5 5 2 359 358 359 1 4 7 7 6 3 2 0 358 357 356 357 358 0 2 3 4 5 5 5 4 4 4 4 4 5 8 9 9 8 8 6 2 359 357 356 356 357 357 354 349 348 349 351 354 356 354 354 355 352 348 349 350 351 352 352 352
61 65 74 77 69 65 62 53 48 46 38 33 35 26 16 13 14 13 12 12 10 7 5 4 1 359 0 3 5 7 9 9 8 7 4 2 1 360 359 359 358 360 2 3 2 3 5 6 6 4 3 4 5 7 9 10 10 10 10 6 3 0 357 354 352 354 353 348 345 346 348 349 352 354 353 354 355 352 347 346 347 347 348 348 350
77 85 89 86 76 70 68 62 52 45 32 22 28 25 17 15 17 16 14 12 8 5 4 4 2 1 2 3 5 7 8 9 10 10 8 5 3 1 0 359 358 359 2 2 1 1 2 4 6 6 4 3 5 7 9 10 11 11 10 8 5 1 355 351 349 349 349 347 344 343 344 345 348 350 351 352 352 350 346 345 344 344 344 345 345
99 104 99 92 85 79 76 62 46 43 38 25 21 20 17 18 20 19 16 12 6 1 0 1 2 4 4 2 3 5 6 7 9 9 8 6 4 1 359 357 356 357 360 1 0 1 1 2 5 7 6 4 4 6 7 9 10 10 9 8 7 4 0 357 353 347 348 351 350 344 341 343 345 347 349 351 350 348 346 345 346 345 344 343 341
114 113 105 100 101 101 95 77 54 46 44 35 25 21 19 17 17 17 16 10 2 358 358 360 3 5 5 3 2 2 3 4 6 6 6 5 3 359 357 355 354 354 357 358 0 2 2 2 4 6 6 5 5 6 6 6 7 8 6 5 6 7 7 5 359 350 349 355 355 346 343 344 345 346 349 350 348 348 347 346 347 347 344 342 342
123 120 111 109 120 127 121 110 91 57 51 55 43 28 17 15 16 16 12 5 360 357 359 1 2 3 3 3 2 0 1 2 3 3 3 2 360 357 354 353 353 353 354 356 358 1 2 2 2 3 4 5 6 6 6 5 6 6 3 3 6 9 10 9 5 360 359 1 355 344 344 347 347 347 349 349 348 350 350 348 348 347 344 344 345
129 126 122 126 135 136 126 123 125 84 60 68 59 40 25 19 21 18 8 1 360 359 358 359 360 359 359 359 358 357 357 359 360 1 0 358 356 355 353 351 351 352 353 355 356 358 359 1 1 1 2 4 5 6 5 3 4 5 4 4 7 9 10 11 11 10 11 8 357 345 347 351 350 349 351 351 351 353 354 352 350 349 347 347 349
135 133 133 140 145 142 136 138 135 114 97 75 58 51 31 15 21 21 9 359 358 359 356 356 357 356 355 356 354 353 354 356 356 357 357 355 353 352 351 350 351 351 352 355 356 356 357 359 359 359 1 2 4 6 5 2 4 7 7 7 8 9 10 10 12 16 17 14 3 351 352 355 354 354 355 355 355 356 356 354 354 355 354 353 354
141 142 144 150 152 150 146 148 148 135 116 84 59 52 33 18 23 24 10 359 358 358 354 352 354 355 353 352 351 351 352 353 353 354 354 353 351 349 348 348 349 349 351 353 355 356 357 358 358 360 1 1 3 4 3 2 5 9 10 8 9 11 11 10 12 17 20 17 6 356 355 358 359 359 359 357 357 357 357 357 359 360 359 359 360
Height
863 863 863 863 864 863 863 863 863 862 861 861 860 859 859 858 857 856 855 854 853 852 851 849 848 847 846 844 843 842 840 839 838 837 835 834 832 831 829 827 826 824 823 821 820 818 817 815 813 811 810 809 807 805 803 801 799 797 795 793 791 789 787 785 781 776 774 773 771 769 768 766 763 761 759 757 756 755 753 752 751 751 751 750 750
861 862 862 862 862 862 862 862 862 861 861 860 859 859 858 857 856 855 854 853 852 851 850 849 847 846 844 843 841 840 838 837 836 834 833 831 830 828 827 825 824 822 821 819 818 816 815 813 811 810 808 807 806 804 801 799 797 795 793 791 789 787 786 783 781 777 772 771 770 768 766 764 762 760 758 756 754 753 752 750 749 749 749 748 748
860 860 860 861 861 861 861 861 861 860 860 859 859 858 857 856 856 855 853 852 851 850 849 847 846 844 843 841 839 837 836 834 833 831 830 828 827 825 824 823 821 820 819 817 815 814 812 811 809 808 807 805 804 802 800 798 796 794 792 790 788 785 784 782 780 777 773 770 768 766 764 762 760 758 756 754 752 751 750 748 747 746 746 746 746
858 858 859 859 859 860 860 859 859 859 859 858 857 857 856 855 854 853 852 851 850 849 847 846 844 842 841 839 837 836 834 833 831 829 828 826 825 823 822 820 819 817 816 814 813 812 810 808 807 806 805 803 801 799 798 796 794 792 790 788 787 784 782 781 779 777 774 770 767 765 763 761 758 757 755 752 750 749 748 746 744 744 744 744 744
856 856 857 857 858 858 858 858 858 858 857 857 856 856 855 854 853 852 851 850 848 847 845 844 842 840 839 837 836 834 832 831 829 828 826 825 823 821 819 818 816 815 814 812 810 808 807 805 804 803 802 800 799 797 795 794 792 790 789 787 785 783 781 779 778 776 773 770 767 764 762 759 756 755 754 751 748 747 745 744 743 742 743 742 741
854 855 855 856 856 857 856 856 856 856 856 855 855 854 853 852 851 850 849 848 846 845 843 841 840 838 837 835 833 832 830 829 827 825 824 822 820 819 817 815 814 812 811 809 807 805 803 802 800 799 798 797 796 794 793 792 790 789 787 786 784 782 780 778 776 774 772 770 766 763 760 757 755 753 752 751 748 745 743 742 741 741 741 741 741
852 853 854 854 855 855 855 855 855 855 855 854 853 853 851 851 849 848 847 845 844 842 841 839 838 836 835 833 831 829 827 826 824 822 821 819 817 815 814 812 810 809 807 805 804 802 800 798 797 795 794 793 792 791 790 789 788 787 785 784 782 781 779 777 774 772 770 768 766 762 758 756 753 751 750 749 747 744 742 741 739 739 739 740 741
851 852 853 853 854 853 853 854 853 853 853 852 852 851 849 849 847 846 845 843 842 840 838 837 835 834 832 830 828 826 824 823 821 819 817 816 814 812 810 809 806 804 803 801 800 798 796 794 793 791 790 789 788 787 787 786 785 784 783 782 780 779 777 775 773 771 769 766 764 761 757 754 751 749 748 747 745 742 741 740 739 737 737 737 738
850 851 851 852 852 852 852 852 852 852 852 851 850 849 848 847 845 844 842 841 839 838 836 834 832 831 829 827 825 823 821 820 818 816 815 813 811 809 807 805 803 800 799 797 795 794 792 790 788 786 785 784 783 783 782 782 781 780 780 779 778 777 775 774 772 770 767 765 762 759 756 753 750 748 746 745 744 742 741 740 738 737 736 735 735
849 850 850 850 851 851 851 851 851 850 850 849 848 847 845 844 843 842 840 838 837 835 833 832 829 827 825 824 822 820 819 817 816 815 813 811 809 806 804 802 800 797 795 793 791 789 788 786 783 782 780 779 778 777 777 777 776 776 776 775 775 774 773 772 771 769 766 764 761 758 755 751 749 747 745 744 743 742 740 739 737 736 735 734 734
848 849 849 849 850 850 849 850 849 849 848 847 845 844 843 842 841 839 837 836 834 832 830 829 827 825 823 821 820 818 816 815 814 812 811 808 806 803 801 799 796 794 792 789 787 785 783 781 779 777 776 774 773 772 772 771 771 771 771 771 771 771 770 770 769 768 766 763 760 757 754 750 748 746 744 742 741 740 739 737 736 735 733 732 732
848 848 848 849 849 848 848 848 847 846 845 845 843 842 841 840 838 837 835 833 832 830 828 826 824 823 821 819 818 816 814 813 811 810 807 805 803 800 798 796 793 790 788 785 783 781 778 777 775 773 771 770 769 768 767 766 766 766 766 766 766 766 766 766 765 765 764 762 759 756 753 750 747 745 743 742 740 738 737 736 735 735 733 730 729
847 847 848 848 848 847 847 846 845 844 844 843 842 841 839 838 836 835 833 831 830 828 826 824 823 821 819 818 816 814 812 811 809 807 805 802 800 797 794 792 789 786 784 781 779 777 775 773 770 769 767 766 765 764 763 763 762 761 761 761 761 761 761 761 760 760 760 760 757 754 752 749 746 743 742 741 739 737 736 735 733 733 732 729 727
847 847 847 847 846 846 845 844 844 844 843 842 840 839 837 836 835 833 831 830 828 826 824 823 821 820 818 816 814 812 810 808 806 804 802 799 797 794 790 787 784 781 779 777 775 773 771 769 766 765 763 762 760 759 759 759 758 758 757 757 756 757 757 756 756 755 755 755 753 751 749 747 745 742 741 740 739 737 735 734 732 730 730 728 727
846 846 846 846 845 845 844 844 844 843 841 840 839 837 836 835 833 832 830 828 827 825 823 821 819 818 816 814 812 810 808 806 804 802 799 796 793 789 786 783 780 777 774 773 771 769 767 765 763 761 759 758 756 755 754 754 753 753 752 752 752 752 752 752 752 751 751 750 749 747 745 744 742 740 739 738 737 736 734 733 731 729 728 726 725
845 845 845 845 845 845 844 843 842 841 840 839 838 837 835 834 832 831 829 828 826 824 822 820 818 816 814 812 810 808 806 805 802 800 797 794 790 787 784 781 777 774 771 769 767 765 763 761 759 757 755 754 752 751 750 749 748 748 748 747 747 747 747 748 747 747 746 745 744 743 741 741 739 737 736 735 734 733 732 730 729 728 726 724 722
844 844 845 845 844 844 843 842 842 841 840 839 837 836 835 833 831 830 828 827 825 823 821 819 817 815 813 811 809 807 805 803 800 798 795 792 788 785 782 779 775 771 768 766 764 761 759 758 756 754 751 750 748 747 746 744 743 743 743 743 743 742 742 743 742 742 741 740 739 738 737 736 735 733 732 731 730 731 730 727 725 726 725 721 718
844 844 845 844 844 843 843 842 841 841 839 838 837 835 834 832 831 829 828 826 823 821 819 817 816 814 811 810 808 805 803 801 799 797 794 791 788 785 782 777 774 770 766 763 761 758 756 754 753 751 748 746 745 744 743 741 740 739 739 738 738 737 737 738 738 737 736 735 734 733 732 731 730 728 726 725 725 726 726 723 723 723 722 718 716
844 844 844 844 843 843 843 842 841 840 839 838 837 835 833 832 830 829 827 825 822 820 819 817 814 812 810 808 806 804 801 799 798 796 793 790 787 785 782 778 774 770 767 763 759 756 753 750 749 747 745 743 742 741 739 738 737 736 735 735 733 732 732 734 734 733 732 731 730 728 727 726 725 723 721 720 720 720 720 719 719 719 717 715 714
844 844 844 844 844 843 843 842 841 840 839 838 836 835 833 831 830 828 826 824 822 820 818 816 813 811 809 807 804 803 800 798 797 795 792 789 787 785 783 780 776 772 768 764 759 754 751 747 745 744 743 740 739 737 736 735 734 733 732 731 729 728 728 730 730 730 729 727 726 725 723 722 720 719 717 716 715 714 713 713 713 714 713 711 711
844 844 844 844 844 843 843 842 841 840 839 838 836 834 833 831 829 827 825 823 821 819 817 815 812 810 808 806 803 802 800 798 797 794 791 789 787 786 784 782 778 773 768 764 759 754 749 745 742 740 739 737 736 734 733 731 731 730 729 727 725 725 726 726 726 726 725 723 722 721 719 717 715 714 712 712 710 709 708 707 707 707 707 707 706
845 845 845 844 844 843 843 842 841 840 839 837 836 834 832 831 829 827 825 823 821 819 816 814 812 809 807 805 803 801 800 798 796 794 791 788 787 786 785 783 779 774 768 762 757 753 748 744 740 738 736 734 733 732 731 729 728 727 725 724 722 722 722 722 723 722 721 720 718 717 715 713 711 710 708 707 706 705 704 704 702 702 702 702 702
845 845 845 845 844 844 843 842 841 840 838 837 835 834 832 831 829 827 825 823 820 818 816 813 811 809 806 805 803 802 800 798 796 794 790 788 787 786 784 781 778 774 768 761 756 751 746 742 739 736 734 731 729 728 727 725 723 723 722 720 719 719 720 720 720 719 717 716 715 713 711 709 707 705 704 703 702 701 701 700 699 698 697 697 697
846 846 846 845 845 844 843 842 841 840 838 837 835 834 832 831 829 827 825 823 820 818 816 814 812 809 807 805 804 802 800 798 796 794 791 788 787 785 782 779 775 772 767 761 755 750 745 741 737 734 731 728 725 723 721 718 717 717 717 717 716 716 717 717 716 715 714 713 710 708 706 705 704 703 702 701 699 697 697 696 695 694 693 693 693
847 846 846 845 844 844 843 842 841 840 839 837 836 834 833 831 829 828 825 823 821 819 817 815 813 811 809 807 805 803 801 798 796 793 791 788 786 783 779 776 772 769 764 759 753 749 744 739 735 730 727 724 721 718 715 712 711 711 711 712 712 713 713 712 712 711 710 707 704 703 703 703 702 701 700 699 697 694 693 692 690 689 689 689 689
847 846 846 845 844 844 843 842 841 840 839 838 836 835 834 832 830 828 826 825 824 822 820 818 816 814 812 810 807 804 801 799 796 793 791 788 784 780 776 772 768 765 761 756 751 746 741 736 732 727 722 719 716 714 712 709 707 707 706 707 708 708 708 708 708 706 704 702 701 701 701 700 700 699 698 696 694 692 691 690 687 686 686 686 686
846 846 845 845 844 844 843 842 842 840 839 838 837 836 835 833 832 830 828 827 826 825 823 821 819 817 815 812 809 806 803 800 797 794 791 787 783 778 773 769 765 761 756 752 748 743 738 733 729 724 719 714 711 709 707 705 703 702 701 702 703 704 704 705 705 702 700 700 700 700 699 698 697 697 696 695 692 690 689 688 685 684 684 684 684
846 846 846 845 845 845 844 843 842 841 840 839 838 837 836 835 834 832 831 831 830 828 826 824 823 821 818 814 811 808 805 802 800 797 793 789 783 778 772 767 763 758 753 749 745 740 734 730 725 721 716 712 709 706 705 702 700 699 698 698 699 700 701 703 703 701 699 699 699 698 697 696 695 695 694 693 691 689 687 685 684 683 682 683 682
846 846 846 846 846 845 844 844 843 842 841 839 838 838 837 836 835 835 834 834 833 832 830 828 826 824 821 817 814 810 806 804 802 799 795 791 786 781 775 769 764 758 752 747 742 737 731 726 722 719 715 712 708 705 703 701 699 697 696 696 696 697 700 702 701 699 698 697 696 696 695 694 694 693 693 691 690 688 686 684 682 682 682 681 681
847 847 847 847 847 846 845 844 843 842 841 840 839 838 837 836 835 836 835 835 834 833 832 830 829 826 824 821 818 815 811 807 802 798 793 789 785 781 775 770 764 757 751 745 740 735 729 724 721 718 715 711 708 705 703 701 698 696 695 695 695 695 697 698 697 696 695 695 694 694 693 693 693 692 692 691 689 687 686 684 683 682 681 681 680
848 848 847 848 847 846 846 845 844 843 842 841 840 839 837 836 835 835 835 835 834 833 832 831 829 828 825 823 820 817 813 808 802 797 792 788 783 778 773 767 760 754 748 743 738 734 729 724 721 718 715 712 708 706 704 701 699 697 695 694 694 694 695 695 694 694 694 694 693 693 693 693 693 692 691 691 689 687 686 685 684 683 682 681 680
849 848 849 848 848 847 846 845 844 843 842 841 841 839 838 837 836 835 835 834 834 833 832 830 829 827 826 823 820 816 812 807 802 798 793 788 782 776 770 765 759 752 746 742 738 735 730 726 722 718 715 712 709 706 704 701 699 697 695 694 694 695 696 696 695 694 694 693 693 693 693 693 693 692 691 690 689 688 687 685 684 683 682 682 681
850 850 850 849 848 847 846 846 845 844 843 842 841 840 839 838 837 836 835 834 833 833 831 830 829 827 825 823 820 817 813 808 803 798 792 787 782 776 770 766 761 753 746 742 739 736 732 728 724 720 716 712 708 706 703 701 698 696 694 694 695 697 697 696 695 694 693 694 694 694 693 693 692 692 691 690 689 688 687 686 684 683 682 682 681
850 850 851 850 849 848 847 846 846 845 844 843 842 841 840 840 839 838 836 835 834 832 831 830 829 826 824 822 820 816 812 807 803 799 794 788 784 778 773 767 760 755 750 747 744 740 736 732 728 723 717 712 708 705 702 700 697 696 694 694 696 698 698 696 695 694 694 695 696 696 694 693 693 692 691 690 689 688 687 685 684 683 682 682 680
851 850 850 850 849 848 848 847 847 846 845 844 843 842 842 841 840 839 837 836 834 832 831 830 828 826 824 823 820 816 812 808 804 800 796 790 785 780 774 768 762 758 756 753 750 746 742 738 733 728 721 715 710 706 704 700 698 697 697 698 699 700 699 698 697 697 697 698 699 699 697 695 694 694 693 691 690 688 686 685 684 683 682 682 681
851 851 850 850 850 849 848 848 847 847 846 845 844 843 843 842 841 839 837 836 835 833 831 829 828 827 825 823 820 816 813 810 807 803 799 793 787 782 777 774 771 768 764 760 756 752 748 743 739 734 728 721 716 712 708 705 703 702 703 704 704 704 704 704 703 702 701 701 702 701 700 698 697 696 694 693 691 689 687 686 684 684 683 682 681
852 852 852 851 850 849 849 848 848 847 847 845 845 844 843 842 841 839 838 837 836 834 831 830 829 827 825 823 820 816 814 812 809 805 800 795 790 786 783 780 778 774 769 766 762 757 753 749 745 740 735 729 724 719 714 712 710 709 709 709 709 709 709 709 708 707 706 705 705 704 703 701 700 698 697 695 693 691 689 687 686 684 683 682 681
852 852 852 851 850 849 849 848 848 847 847 846 845 845 844 842 841 840 839 837 836 834 832 831 830 829 827 824 821 817 814 811 808 804 800 796 792 790 788 786 782 779 775 772 768 763 759 755 751 746 742 737 731 727 723 721 719 718 717 716 715 714 714 713 712 711 710 709 708 706 705 703 701 700 698 696 694 692 690 689 687 685 683 682 681
851 851 851 851 850 850 849 849 848 848 847 846 846 845 844 843 842 841 839 838 837 835 833 832 831 830 829 826 822 819 815 812 808 805 802 800 797 795 793 790 787 784 780 777 773 769 765 761 757 753 749 744 740 736 733 731 728 727 725 723 722 720 718 717 716 715 713 712 710 709 707 705 703 702 700 698 696 694 692 690 688 686 685 683 681
851 851 851 850 850 850 849 849 848 848 847 847 846 845 844 844 843 842 840 839 838 836 835 833 833 832 830 828 825 821 818 815 812 809 807 804 802 799 797 794 791 788 785 781 778 774 771 767 763 759 755 751 747 744 741 739 736 734 732 730 728 726 724 722 721 719 717 715 714 712 709 707 705 703 701 699 698 696 693 691 689 688 686 684 682
851 851 851 850 850 850 849 849 849 848 848 847 846 846 845 845 844 843 842 840 839 837 836 835 834 833 832 830 827 824 821 819 816 813 811 808 805 803 800 798 795 792 789 786 782 779 775 772 768 765 761 757 753 750 747 745 742 740 738 736 733 731 729 727 725 723 720 718 716 714 712 710 707 705 703 701 699 697 695 693 691 689 687 685 683
851 851 850 850 850 849 849 849 849 848 848 848 847 847 846 845 844 843 842 841 840 838 837 836 835 834 832 831 828 825 823 821 818 816 813 811 808 806 803 801 799 796 793 790 787 784 780 776 773 770 766 762 758 755 752 750 747 745 743 740 738 735 732 730 728 726 723 721 719 716 714 712 710 708 706 704 701 699 697 695 693 690 688 686 684
850 850 850 850 850 850 849 849 849 849 849 848 848 847 847 845 845 844 843 842 841 839 838 837 836 834 832 831 828 826 824 822 820 818 815 813 811 809 806 804 802 799 797 794 791 788 784 780 777 774 770 767 764 761 758 755 753 750 747 744 742 739 736 733 730 727 725 723 721 719 717 714 712 710 708 706 703 701 699 696 694 692 690 688 686
850 850 850 850 850 850 850 850 850 849 849 849 848 848 847 846 845 844 843 842 841 840 839 838 837 835 833 831 829 827 825 823 821 819 817 815 813 811 809 806 804 801 799 796 793 790 787 784 781 777 773 770 768 765 763 761 758 755 752 749 745 742 739 736 733 730 728 726 724 721 719 717 714 712 710 708 705 703 700 698 696 693 691 690 688
850 850 850 849 849 850 850 850 850 849 849 849 848 847 847 846 845 844 844 843 842 841 840 839 837 835 833 832 830 828 827 825 823 821 819 817 815 813 811 809 806 803 801 798 796 793 790 787 784 781 777 774 771 769 767 764 762 759 756 753 750 747 743 740 736 733 731 729 726 723 721 719 717 715 712 710 708 705 703 700 698 695 693 691 689
849 849 849 849 849 850 850 850 850 849 849 849 848 847 847 846 845 845 844 844 843 842 840 839 837 836 834 833 831 830 828 826 824 822 821 819 817 815 813 810 808 805 803 800 798 795 792 790 787 784 781 778 775 773 770 767 765 762 760 757 754 751 747 742 739 736 733 730 727 726 724 721 719 717 715 712 710 707 705 702 700 697 695 693 691
849 849 849 849 849 850 850 850 850 849 849 849 848 848 847 846 846 845 845 844 843 842 841 839 838 837 835 834 833 831 829 827 825 824 822 821 819 817 815 812 809 807 805 802 800 797 795 792 790 787 785 781 778 776 773 770 768 765 762 760 756 753 748 744 741 738 735 732 729 728 726 724 721 719 716 714 711 709 706 704 701 699 697 694 692
848 848 848 848 849 849 850 850 850 849 849 849 849 848 847 847 846 845 845 844 843 842 841 840 839 837 836 835 834 832 830 829 827 825 824 822 820 818 816 813 811 808 806 804 802 799 797 794 792 790 787 784 781 779 776 773 770 767 765 762 758 755 751 747 744 740 737 733 731 730 728 725 723 721 718 716 713 711 708 706 703 701 698 696 694
847 848 848 848 849 849 849 849 849 849 849 849 848 848 847 847 846 845 845 844 844 843 842 841 839 838 837 836 834 833 831 830 828 826 825 823 821 819 817 815 812 810 807 805 803 801 799 796 794 791 789 787 784 781 779 776 773 769 766 763 760 756 752 749 745 742 738 735 733 732 730 727 725 723 720 717 715 713 710 708 705 703 700 698 696
847 847 848 848 849 849 849 849 849 849 849 848 848 847 847 846 846 845 845 845 844 843 842 841 840 839 838 836 835 834 832 830 829 827 825 824 822 820 818 815 813 811 809 807 805 802 800 798 796 793 791 789 787 784 781 778 775 771 768 765 761 757 753 749 746 743 740 736 735 734 732 729 727 725 722 719 717 715 712 710 707 705 703 700 698
846 846 847 848 848 848 848 849 849 849 849 848 847 847 847 846 846 845 845 845 844 843 842 841 840 839 838 837 835 834 833 831 829 827 826 824 822 820 818 816 814 812 810 808 806 804 802 799 797 795 793 791 789 786 783 780 777 773 769 766 762 758 754 751 747 745 741 738 737 736 734 731 729 727 724 722 719 717 714 712 709 707 705 702 700